Find Tian Lian 2-04

NORAD ID: 63361 Int'l Des: 2025-062 Owner: CAST Country: CN operational
HEOCIRCULARGSO

实时位置

正在加载3D地球...

关于 Tian Lian 2-04

正在加载描述...

即将过境

Passes for default location (London). Set your location on the main map for personalized predictions.

高度历史

Loading altitude history...

两行轨道根数

1 63361U 25062A 26105.03031598 -.00000139 00000-0 00000+0 0 9990
2 63361 4.5387 275.3228 0033232 11.0405 7.7940 1.00272160 3976
Epoch: Apr 15, 2026 • Age: 64 hours

当前状态

高度 35816.5 km
速度 3.07 km/s
星下点 -4.55°S, 79.67°E
发射日期 Mar 26, 2025
运行时间 1 years
类型 other

技术详情

分类 Payload
质量 5000.00 kg
干质量 2000.00 kg
总质量 5000.00 kg
长度 6.00 m
直径 2.50 m
跨度 20.00 m
形状 Box + 2 Pan + Dish
制造商 CAST
平台类型 DFH-4
阶段状态 In Orbit
所有者/国家 CAST/CN

Most Searched